Tracking 29892 objects as of 21-Nov-2024
HD Live streaming from Space Station
objects crossing your sky now

STARLINK-3822

Track STARLINK-3822 now!
10-day predictions
STARLINK-3822 is classified as:


NORAD ID: 52287
Int'l Code: 2022-041AC
Perigee: 546.0 km
Apogee: 547.7 km
Inclination: 53.2 °
Period: 95.4 minutes
Semi major axis: 6917 km
RCS: Unknown
Launch date: April 21, 2022
Source: United States (US)
Launch site: AIR FORCE EASTERN TEST RANGE (AFETR)
Your satellite tracking list
Your tracking list is empty




NASA's NSSDC Master Catalog

Two Line Element Set (TLE):
1 52287U 22041AC  24324.64547907  .00001858  00000-0  13476-3 0  9996
2 52287  53.2173  81.6736 0001287  85.3599 274.7540 15.08848432143881
Source of the keplerian elements: AFSPC